Regional Weather Roundup
Issued by NWS

Home | Current Version | Previous Version | Graphics & Text | Print | Product List | Glossary On
Versions: 1 2 3 4 5 6 7 8 9 10 11 12 13 14 15 16 17 18 19 20 21 22 23 24 25 26 27 28 29 30 31 32 33 34 35 36 37 38 39 40 41 42 43 44 45 46 47 48 49 50
000
ASUS45 KCYS 110710
RWRWY

WYOMING REGIONAL WEATHER ROUNDUP
NATIONAL WEATHER SERVICE CHEYENNE WY
1200 AM MST SUN DEC 11 2016

NOTE:  "FAIR" INDICATES FEW OR NO CLOUDS BELOW 12,000 FEET
WITH NO SIGNIFICANT WEATHER AND/OR OBSTRUCTIONS TO VISIBILITY.

WYZ001-110800-
YELLOWSTONE NATIONAL PARK

CITY           SKY/WX    TMP DP  RH WIND       PRES   REMARKS
LK YELLOWSTONE   N/A     12  10  92 NW3       29.77R
W YELLOWSTONE  NOT AVBL

$$
WYZ002>013-054>058-071-098>099-110800-
NORTHERN WYOMING

CITY           SKY/WX    TMP DP  RH WIND       PRES   REMARKS
JACKSON        MOCLDY    28  21  74 S7        29.77F WCI  21
CODY           FOG       14  12  92 CALM      29.77R VSB 3/4
GREYBULL       FAIR      22  14  71 E6        29.79R WCI  14
WORLAND        CLOUDY    27  22  81 N3        29.78R
SHERIDAN       FAIR      22  15  75 W10       29.78S WCI  11
BUFFALO        FAIR      26  17  68 N14       29.74R WCI  14
GILLETTE       CLOUDY    22  20  92 N3        29.76R
HULETT         PTSUNNY   21  18  86 SW6       29.77R WCI  14
NEWCASTLE      FAIR      21  18  86 NW12      29.75R WCI   9

$$
WYZ014>020-022>026-101>103-110800-
CENTRAL WYOMING

CITY           SKY/WX    TMP DP  RH WIND       PRES   REMARKS
BIG PINEY      FAIR      21  19  92 VRB5      29.83R WCI  15
PINEDALE       FAIR      21  18  86 N15G23    29.83R WCI   8
DUBOIS         FAIR      27  10  50 W29G39    29.69R WCI  11
LANDER         FAIR      28  22  78 W13       29.73S WCI  17
RIVERTON       FAIR      26  21  81 E9        29.74R WCI  17
CASPER         CLOUDY    30  25  81 E7        29.77S WCI  23
DOUGLAS        CLOUDY    32  20  61 W7        29.80R WCI  26

$$
WYZ021-027>030-104>119-110800-
SOUTHERN WYOMING

CITY           SKY/WX    TMP DP  RH WIND       PRES   REMARKS
EVANSTON       LGT SNOW  29  27  92 SW10      29.87R VSB 1   WCI  20
KEMMERER         N/A     28  28 100 W17       29.84S WCI  16
FORT BRIDGER   LGT SNOW  31  31 100 W13       29.89S WCI  21
ROCK SPRINGS   LGT SNOW  28  27  96 W14       29.84F FOG     WCI  17
DIXON          LGT SNOW  33  32  96 W10       29.87F WCI  25
RAWLINS        CLOUDY    33  22  63 W17G31    29.79S WCI  22
SARATOGA       LGT SNOW  30  30 100 W14       29.83S WCI  20
LARAMIE        CLOUDY    30  26  85 NW12      29.77R WCI  20
CHEYENNE       CLOUDY    37  26  64 NW15G31   29.75R WCI  28
TORRINGTON     CLOUDY    33  23  66 NW14      29.76R WCI  23
PINE BLUFFS    CLOUDY    41  28  60 W20G29    29.72R

$$



USA.gov is the U.S. government's official web portal to all federal, state and local government web resources and services.